Miscellaneous Local Product
Issued by NWS Hastings, NE

Home | Current Version | Previous Version | Text Only | Print | Product List | Glossary Off
Versions: 1 2 3 4 5 6 7 8 9 10 11 12 13 14 15 16 17 18 19 20 21 22 23 24 25 26 27 28 29 30 31 32 33 34 35 36 37 38 39 40 41 42 43 44 45 46 47 48 49 50

948
AXUS43 KGID 251902
MISGRI

GID CWA HOURLY WEATHER ROUNDUP
NATIONAL WEATHER SERVICE HASTINGS NE
200 PM CDT TUE APR 25 2017

NOTE: "FAIR" INDICATES FEW OR NO CLOUDS BELOW 12,000 FEET WITH NO
SIGNIFICANT WEATHER AND/OR OBSTRUCTIONS TO VISIBILITY.

...SOUTH CENTRAL NEBRASKA...

CITY           SKY/WX    TMP DP  RH WIND       PRES   REMARKS
GRAND ISLAND   CLOUDY    42  39  89 N16       29.58S
HASTINGS       CLOUDY    45  39  79 N18       29.55F
KEARNEY        CLOUDY    45  37  76 N16       29.57S
ORD            CLOUDY    40  36  86 N17       29.59S WCI  31
YORK           CLOUDY    45  39  81 N18G26    29.55R
AURORA         CLOUDY    43  39  85 N20G26    29.55S
LEXINGTON      CLOUDY    43  38  84 N9        29.59S
HOLDREGE       CLOUDY    44  40  87 N14       29.57R
HEBRON         CLOUDY    50  41  72 N15G21    29.51S

...NEBRASKA PANHANDLE...

CITY           SKY/WX    TMP DP  RH WIND       PRES   REMARKS
CHADRON        CLOUDY    34  30  85 NE17      29.72S WCI  23
ALLIANCE       CLOUDY    37  35  92 NE21      29.64R WCI  26
SCOTTSBLUFF    CLOUDY    46  38  73 NE21G31   29.62R
SIDNEY         CLOUDY    57  37  47 N12       29.56F

...WESTERN AND NORTH CENTRAL NEBRASKA...

CITY           SKY/WX    TMP DP  RH WIND       PRES   REMARKS
VALENTINE      CLOUDY    37  32  82 N13       29.69S WCI  29
AINSWORTH      FLURRIES  34  34 100 N18       29.67S WCI  23
ONEILL         CLOUDY    37  35  90 N20G26    29.62F WCI  27
BROKEN BOW     CLOUDY    42  41  96 N16G23    29.59S
IMPERIAL       CLOUDY    49  43  80 N13       29.59S
NORTH PLATTE   CLOUDY    46  40  79 N13       29.60S
MCCOOK         CLOUDY    50  43  77 N12       29.57R

...EASTERN NEBRASKA...

CITY           SKY/WX    TMP DP  RH WIND       PRES   REMARKS
NORFOLK        LGT RAIN  40  37  89 N15       29.55F WCI  32
SO SIOUX CITY  CLOUDY    44  41  89 N15       29.56F
TEKAMAH        CLOUDY    49  42  77 N20       29.51F
COLUMBUS       CLOUDY    43  36  75 N14G20    29.57R
ALBION         CLOUDY    40  37  87 N10       29.59R WCI  34
OMAHA EPPLEY   CLOUDY    52  43  71 N15G23    29.49S
OFFUTT AFB     CLOUDY    54  46  74 N14G21    29.48S
MILLARD        CLOUDY    52  45  76 N9        29.50F
LINCOLN        CLOUDY    50  42  74 N20       29.52S
NEBRASKA CITY  CLOUDY    58  42  55 N16       29.45S
BEATRICE       CLOUDY    54  44  70 N18       29.49R
FALLS CITY     CLOUDY    66  54  65 NW3       29.41S

...NORTHERN KANSAS...

CITY           SKY/WX    TMP DP  RH WIND       PRES   REMARKS
GOODLAND       CLOUDY    58  42  55 VRB7      29.55S
HILL CITY      CLOUDY    58  44  60 NE16      29.53S
NORTON         MOCLDY    50  39  66 N13       29.54S
PHILLIPSBURG   CLOUDY    52  43  71 N12       29.55S
SMITH CENTER   CLOUDY    48  39  71 N10       29.54R
HAYS           CLOUDY    54  45  71 N18       29.50F
RUSSELL        CLOUDY    54  44  69 N17       29.49S
CONCORDIA      CLOUDY    53  45  74 N16       29.48S
SALINA         CLOUDY    64  52  64 N14       29.45R
TOPEKA         CLOUDY    70  55  59 S5        29.39F



USA.gov is the U.S. government's official web portal to all federal, state and local government web resources and services.